Theta_e
316 317 318 322 323 325 330 330 334 334 327 320 318 322 320 321 324 320 322 323 324 320 319 324 326 324 325 330 331 333 333 334 336 339 345 342 340 342 341 341 339 338 336 335 336 337 338 338 338 338 338 338 337 338 338 338 338 338 337 336 335 333 331 330 327 323 323 321 317 312 315 327 332 333 332 331 330 330 331 331 332 333 334 332 328 328 327 325 327 328 328 328 327 326 326 325 326
317 317 322 324 324 326 335 334 330 328 325 319 316 321 318 324 328 322 325 323 322 319 322 328 327 324 324 329 329 339 340 335 338 341 342 340 341 341 341 341 338 338 336 336 337 337 338 338 338 339 338 338 338 338 339 339 338 338 337 337 336 334 330 327 326 324 323 321 316 312 315 326 332 332 332 331 330 331 331 331 332 333 333 331 327 327 326 324 327 328 328 326 326 325 325 325 325
317 319 324 325 326 326 333 334 325 323 324 319 313 318 321 326 327 322 323 321 322 323 325 326 327 325 322 328 330 339 341 335 338 341 340 341 341 341 342 340 339 338 336 337 337 337 338 337 339 339 338 338 338 339 339 339 338 337 337 337 336 334 329 327 325 325 324 321 317 312 312 323 331 331 331 330 330 330 331 332 333 333 332 330 328 328 326 324 326 327 328 326 325 325 325 325 325
318 322 325 324 333 331 331 331 329 327 320 317 314 317 325 325 324 321 322 322 324 324 323 324 327 323 323 330 331 335 337 335 338 339 340 340 340 341 341 341 340 338 337 338 337 337 337 337 338 338 339 339 338 339 339 339 338 338 337 337 336 334 330 328 326 325 324 322 319 313 310 318 328 331 330 329 329 329 331 332 332 332 331 330 329 328 326 324 325 326 327 326 324 325 325 326 326
321 324 325 323 335 334 330 329 330 327 316 320 319 318 325 322 322 321 321 322 322 324 322 324 325 320 324 328 331 335 335 336 338 338 340 339 340 341 341 342 341 339 337 338 337 337 336 338 338 338 339 339 339 339 339 339 338 338 337 337 337 334 331 330 327 326 324 322 319 313 309 313 324 330 329 329 330 330 332 332 332 331 330 330 330 327 326 325 325 327 327 325 325 325 325 326 325
322 323 325 323 330 328 329 326 320 320 315 323 321 319 325 319 321 321 321 322 321 323 321 322 322 323 328 328 330 334 333 337 338 338 339 339 339 339 341 341 341 340 339 339 338 337 336 337 337 338 338 338 339 339 339 339 338 338 337 337 336 335 332 330 328 326 324 322 319 313 309 312 323 329 329 329 331 331 331 331 331 331 330 331 330 327 325 325 326 327 326 325 325 326 326 327 327
321 325 328 326 329 326 331 326 316 320 317 321 321 320 322 319 321 321 321 321 320 320 320 321 321 325 327 329 333 333 334 338 338 339 339 338 338 339 341 341 341 341 340 341 339 337 336 336 335 337 338 337 337 338 339 338 338 338 337 337 336 335 333 331 329 327 324 322 319 313 309 311 321 329 329 329 330 331 331 332 331 331 331 330 329 327 324 325 326 326 326 325 326 326 326 328 328
321 325 332 331 333 330 330 325 319 324 320 318 320 321 321 320 321 321 322 321 320 319 320 320 320 324 323 331 336 334 337 338 338 339 338 337 339 340 341 341 341 341 341 342 340 337 336 335 334 335 336 337 337 337 338 338 338 338 337 336 336 336 334 332 329 328 325 323 320 314 310 309 316 326 329 328 328 329 331 332 332 331 331 329 327 325 323 325 326 326 326 325 325 325 325 326 327
321 324 332 328 328 331 325 320 319 321 320 320 320 321 322 321 322 321 321 319 320 319 319 320 321 321 323 332 334 331 337 338 338 339 338 338 339 341 341 341 341 341 341 342 340 337 337 334 332 333 335 336 336 337 338 338 337 337 337 336 336 336 335 332 330 329 326 324 321 316 311 310 313 323 329 328 327 327 329 330 331 330 330 328 326 324 322 324 325 325 325 324 324 324 323 324 324
324 323 331 331 329 327 320 318 320 319 318 320 319 322 322 321 321 320 320 319 320 321 320 320 319 320 325 332 331 332 336 337 338 338 338 338 340 341 340 341 340 341 341 342 341 337 337 334 330 331 334 335 335 335 337 338 337 337 337 336 336 336 335 333 331 330 327 324 322 317 311 311 313 320 327 328 328 327 328 328 329 328 328 326 325 324 323 324 324 325 324 322 323 323 323 323 322
328 324 333 336 327 320 318 319 319 319 318 319 319 319 321 320 320 318 318 318 321 323 320 319 317 320 326 330 329 331 335 336 337 338 338 338 340 340 340 341 340 341 341 342 341 337 337 335 331 331 332 333 333 333 336 337 336 336 336 336 335 335 335 333 332 330 328 325 323 319 312 311 313 317 323 326 327 327 327 327 327 327 326 325 324 324 323 323 324 323 322 321 322 323 322 322 322
331 329 332 327 323 320 319 322 319 320 318 318 319 318 320 320 319 318 318 319 322 324 320 320 318 320 327 328 328 330 334 336 336 336 336 338 339 339 340 341 340 341 341 342 341 337 337 336 333 332 332 333 332 332 333 336 336 335 335 335 335 335 335 334 332 331 329 327 325 322 316 312 310 313 319 323 325 324 325 326 325 325 325 324 324 323 321 322 323 323 321 320 322 322 322 322 321
330 331 330 323 329 326 320 322 320 321 319 319 320 318 321 319 320 319 318 319 321 322 319 321 319 321 327 326 327 329 333 335 335 336 335 337 338 339 340 341 340 341 341 342 340 337 337 336 335 334 334 334 333 331 331 334 335 335 335 334 335 335 335 334 332 331 330 327 325 324 321 316 311 311 314 319 321 320 320 320 321 323 325 324 324 323 321 321 322 321 320 320 321 321 321 320 320
329 332 331 328 333 327 323 322 321 323 318 320 319 318 321 318 319 319 318 319 319 320 318 318 317 324 326 325 328 328 331 334 336 336 335 337 338 340 341 341 341 341 341 341 341 337 336 337 336 336 335 335 334 332 330 331 332 333 334 334 335 335 335 334 332 331 331 329 327 325 323 320 316 312 312 314 316 315 314 313 316 320 322 321 321 319 318 319 318 316 316 318 320 320 320 320 320
327 335 333 329 329 324 325 322 322 326 318 318 319 318 320 316 318 318 319 321 319 318 317 316 316 320 323 328 330 326 331 335 335 336 336 338 339 342 341 341 342 341 341 341 341 338 336 337 337 336 335 336 335 333 331 331 331 332 333 334 334 335 334 334 333 332 331 330 328 326 324 322 320 316 313 313 314 313 310 307 309 312 313 313 312 312 313 313 312 313 314 317 319 319 320 320 320
328 340 335 325 326 321 321 321 323 324 318 319 318 318 320 315 318 318 317 320 319 316 317 317 316 319 326 335 330 325 333 335 333 335 337 339 340 341 341 341 342 341 342 341 341 340 338 337 337 337 336 336 336 335 333 331 331 331 332 333 333 334 334 334 333 332 332 331 328 326 324 322 320 318 317 316 316 314 308 304 304 305 305 305 305 309 310 308 310 312 312 317 320 319 320 320 320
332 346 336 323 326 321 317 322 325 323 319 319 317 318 319 316 317 316 314 318 319 317 318 317 317 322 333 338 330 328 336 333 333 336 337 339 339 340 341 341 341 341 342 341 341 340 339 338 338 338 337 337 336 337 335 333 332 331 331 332 334 334 334 334 332 332 332 331 329 327 325 323 322 320 318 317 316 314 308 303 302 302 302 302 304 306 306 307 311 312 311 318 320 319 320 320 320
333 338 329 325 328 321 316 320 323 323 319 318 318 318 319 317 317 315 315 317 317 317 318 318 320 326 331 332 331 333 335 333 334 335 335 337 338 339 339 340 341 341 341 341 340 341 341 339 339 339 338 338 337 337 337 335 333 331 331 331 333 334 334 334 332 332 332 332 330 328 326 324 324 322 320 318 316 315 310 304 302 302 301 301 302 302 304 309 313 312 311 315 318 318 318 319 319
329 331 325 329 328 317 316 318 318 321 319 318 318 318 318 318 317 315 315 316 317 317 317 318 323 327 331 331 332 334 333 334 334 333 334 335 335 337 338 339 340 340 340 341 340 340 340 340 340 339 339 339 338 338 338 337 335 333 331 330 331 333 334 333 332 332 332 332 330 329 327 325 324 323 322 320 317 315 311 305 302 301 301 300 301 301 306 311 313 313 311 311 314 316 317 317 317
327 334 328 325 323 317 317 318 318 319 318 319 317 316 317 317 316 315 316 317 317 318 317 319 322 326 333 331 329 332 332 333 333 332 333 332 334 335 336 338 338 339 339 339 339 339 340 340 340 339 339 339 339 339 338 338 336 335 333 331 330 332 333 333 332 332 331 332 331 329 327 325 325 324 323 322 320 316 311 306 303 302 301 300 300 303 308 311 312 311 311 310 311 313 315 316 317
322 332 329 321 319 321 318 317 320 319 317 318 318 317 317 316 316 315 317 316 316 318 316 319 321 324 330 331 327 330 330 331 331 331 332 331 332 332 334 336 336 337 337 338 338 337 338 339 339 339 339 339 339 339 339 338 338 336 334 333 331 331 333 333 332 332 332 332 331 329 327 327 326 325 324 323 323 320 314 308 306 305 303 301 300 303 307 310 310 310 310 310 310 312 314 315 316
318 320 322 319 319 321 317 317 320 319 318 318 317 317 316 316 316 316 316 318 318 318 316 318 319 319 327 330 327 327 328 329 330 330 331 331 331 331 332 333 335 336 336 337 336 336 336 337 338 338 338 339 339 339 339 338 338 338 336 335 334 332 332 333 332 332 332 332 331 328 327 328 327 326 324 324 324 322 318 312 308 307 304 302 300 303 306 307 308 308 308 308 310 312 314 315 316
318 316 317 319 320 320 317 317 319 319 320 318 317 316 316 316 317 317 316 318 319 318 319 320 316 315 322 327 326 327 328 327 328 330 330 331 331 332 331 332 335 336 336 336 336 336 335 336 336 337 337 337 338 339 339 339 338 338 337 336 336 335 333 332 332 332 332 332 331 329 327 328 328 327 325 324 324 322 320 314 310 308 305 302 301 302 305 306 307 307 308 308 310 312 314 315 316
319 317 316 317 319 319 316 317 317 319 320 317 317 315 316 318 317 317 317 319 319 317 318 318 314 313 320 326 326 326 327 326 328 329 330 331 331 332 333 332 334 335 335 335 335 335 335 335 335 336 337 336 338 338 338 339 338 337 337 337 337 336 335 333 332 332 332 333 332 331 330 329 328 328 326 325 324 323 320 316 311 308 305 302 301 303 305 307 309 308 308 308 309 311 313 314 315
317 317 317 316 317 317 316 317 317 317 318 316 317 317 317 319 317 317 318 320 320 316 315 317 315 315 321 327 327 325 325 326 326 328 329 331 331 332 333 333 333 334 334 335 335 335 335 334 333 334 336 336 337 337 337 338 337 337 337 337 337 336 336 335 334 333 332 333 333 332 332 331 329 329 327 325 324 322 320 317 313 309 306 303 302 305 308 310 310 309 308 308 309 310 311 313 314
316 317 317 317 316 315 315 316 316 317 316 316 318 318 317 318 316 318 320 321 319 317 318 319 319 319 322 326 325 322 324 325 325 326 328 330 331 331 332 333 333 333 332 334 334 334 334 333 332 333 335 336 337 337 337 336 336 336 337 337 336 336 336 336 335 334 333 333 333 333 333 332 331 329 328 325 324 323 321 319 315 310 306 303 304 309 312 312 311 309 308 308 308 309 310 311 312
317 318 318 318 316 316 316 316 316 317 317 316 317 318 317 316 316 318 321 320 317 318 319 317 319 322 320 322 322 320 322 324 325 326 326 328 330 331 332 333 333 333 333 332 333 334 334 333 332 332 334 335 336 336 336 336 336 336 336 336 336 336 336 336 336 335 334 334 334 334 333 333 332 330 329 327 324 322 321 320 316 311 305 304 309 312 313 312 311 309 308 308 308 309 308 309 311
317 318 317 317 317 316 317 316 316 317 316 316 317 318 317 316 317 319 319 318 316 319 321 317 319 321 317 320 321 318 319 322 324 324 325 326 328 329 331 332 333 333 333 332 332 333 333 333 332 332 334 334 335 336 336 336 336 335 335 334 335 335 335 335 336 336 335 335 335 334 334 334 333 331 330 328 325 322 322 322 317 312 306 307 313 314 313 312 310 309 308 307 307 307 307 307 308
318 320 319 316 316 317 317 317 317 317 317 317 316 315 317 317 319 319 318 320 318 318 321 319 319 319 317 318 318 318 317 318 322 323 325 325 325 327 328 330 332 333 333 333 332 332 333 333 333 333 333 333 333 334 335 335 334 334 334 333 333 333 333 334 334 336 335 335 335 335 335 334 333 332 330 328 326 323 322 323 319 314 309 310 314 314 314 313 310 309 307 305 304 305 305 305 305
318 317 320 318 316 319 319 316 317 316 317 318 315 313 319 322 319 317 318 321 320 319 320 319 320 320 319 318 317 318 315 314 319 322 323 324 323 324 324 325 330 332 333 333 333 333 333 333 332 332 332 332 332 333 334 334 333 333 332 333 333 332 332 332 333 335 335 335 335 335 335 334 333 333 330 327 327 324 322 323 321 316 312 311 313 314 314 312 311 310 307 303 302 303 303 301 302
319 315 322 324 318 321 320 316 317 317 316 318 315 314 320 322 318 318 318 320 320 320 321 319 319 320 321 321 318 318 316 312 316 321 322 322 322 323 322 321 326 331 332 332 333 333 333 332 332 331 331 330 330 332 334 333 332 332 332 332 332 333 333 332 333 334 335 335 335 335 335 335 334 333 331 328 327 326 323 322 321 318 315 314 314 314 314 312 311 310 307 303 301 300 300 298 298
319 316 321 324 320 321 320 316 317 318 316 316 315 316 320 319 318 319 317 318 320 320 321 321 321 320 320 321 319 319 317 313 313 318 321 322 322 322 322 321 324 329 331 332 332 332 332 332 331 330 330 329 328 331 333 333 332 332 331 330 330 331 331 332 331 331 332 333 334 335 335 335 335 334 333 330 328 327 325 322 321 320 317 315 315 314 314 312 311 310 307 306 302 297 296 296 295
322 320 322 323 320 320 320 318 318 319 318 316 314 316 320 319 318 319 318 318 319 321 322 321 321 320 319 319 319 320 319 317 315 315 318 321 322 322 322 322 322 327 331 332 332 332 332 331 331 330 328 328 328 330 331 331 331 331 331 330 329 329 329 329 330 330 330 330 332 334 336 335 335 334 334 332 330 329 326 323 321 320 318 316 315 314 313 312 311 309 305 303 302 297 295 295 294
322 318 319 323 321 319 320 319 318 319 319 317 316 316 320 320 318 318 319 320 319 320 322 322 321 320 320 319 319 320 319 320 318 314 316 319 321 321 322 322 322 324 328 332 332 331 331 330 330 329 328 327 327 329 330 329 330 330 330 330 329 329 328 327 328 329 330 329 329 331 334 335 335 335 334 333 332 331 328 325 323 321 318 316 315 314 312 310 309 309 304 299 299 298 295 294 293
326 320 318 322 320 318 321 320 317 318 318 317 318 318 319 321 318 316 317 320 320 321 322 321 321 321 320 320 320 320 319 320 318 314 316 317 319 321 322 323 323 323 327 330 331 331 330 330 329 329 328 327 327 328 328 328 328 328 328 328 328 328 327 326 327 329 330 330 329 329 333 335 334 334 334 333 332 331 329 327 326 323 320 317 316 313 310 308 306 306 303 298 296 297 295 293 292
327 327 325 323 318 316 318 317 316 317 317 318 318 318 319 319 318 317 315 317 318 319 320 319 320 319 319 320 320 320 319 320 316 313 316 317 317 319 320 322 323 323 325 328 330 330 329 329 329 328 328 327 326 327 326 326 326 326 326 325 325 325 325 326 327 329 329 329 329 329 331 334 334 333 334 333 331 332 331 328 326 324 322 319 316 313 311 310 307 304 302 299 297 295 293 293 291
321 324 322 321 319 316 317 317 316 316 315 319 320 318 318 317 316 316 314 314 316 318 318 318 318 318 317 319 320 319 319 317 314 313 315 316 316 318 319 320 322 323 323 325 328 328 328 328 328 328 327 326 326 325 325 324 324 324 323 323 323 323 324 325 327 328 328 329 329 328 329 331 332 332 332 333 332 332 331 329 326 324 322 320 317 314 312 311 308 304 301 300 299 295 292 292 291
321 323 322 322 323 318 316 318 317 316 314 319 321 316 316 316 313 314 314 314 315 316 318 317 317 317 316 318 319 318 317 316 315 315 314 314 316 316 317 319 320 321 322 323 326 327 327 327 327 327 326 326 325 324 324 323 323 323 323 323 323 322 322 323 325 326 327 327 327 328 327 328 329 330 329 330 331 331 330 328 327 325 323 320 317 313 312 311 307 304 302 299 297 295 293 291 291
325 324 323 323 323 318 316 318 318 317 316 320 323 318 316 315 313 313 313 314 315 314 316 317 316 316 316 317 318 318 317 318 320 321 316 314 315 315 317 318 319 320 321 323 325 325 326 326 326 326 325 324 324 323 323 322 322 322 322 321 320 320 320 321 322 324 325 325 325 326 326 326 326 326 326 327 328 328 328 327 326 325 324 320 316 312 310 309 307 305 305 303 297 293 292 292 292
326 326 323 324 324 319 317 318 317 316 315 318 321 320 318 315 315 317 314 313 313 313 315 317 318 318 317 317 317 318 318 319 322 325 322 315 314 315 316 317 318 320 320 322 323 324 324 324 324 324 323 322 322 321 321 321 320 320 320 319 318 318 318 319 320 322 323 323 323 323 323 324 322 322 324 325 326 326 327 326 326 325 323 320 317 314 310 308 307 305 304 304 300 295 292 291 292
325 329 327 327 324 319 318 318 318 320 320 320 319 319 323 325 323 325 324 318 314 314 314 315 318 318 318 319 319 319 320 320 321 327 328 317 313 315 316 317 318 318 320 320 321 322 322 322 322 321 321 320 320 319 319 319 319 318 318 317 316 317 317 317 317 318 318 319 319 320 321 320 318 320 324 325 326 326 326 326 326 325 323 319 317 316 314 311 309 307 304 304 303 299 294 291 291
318 323 325 325 322 321 324 323 319 320 322 322 317 316 327 334 326 323 324 319 317 318 317 319 321 318 318 320 320 321 324 325 324 328 328 317 313 315 315 316 316 317 318 319 319 320 320 320 320 319 319 318 318 318 318 318 317 317 316 315 315 315 315 314 314 314 314 314 315 316 318 317 316 319 323 324 325 325 326 325 325 323 320 318 316 315 313 311 308 306 306 305 304 302 298 292 291
314 318 322 324 328 328 330 329 319 318 322 319 315 316 323 324 316 316 317 314 314 316 316 319 321 320 320 320 322 324 327 328 328 329 327 318 313 313 314 314 315 316 316 317 318 318 319 319 319 319 318 318 317 317 317 317 317 316 315 314 314 314 313 313 313 313 312 312 313 315 316 316 317 320 323 323 324 324 324 324 323 322 319 318 315 313 312 311 309 307 305 306 304 301 299 296 293
318 321 325 327 329 325 328 330 322 321 323 322 322 320 321 320 316 316 316 314 314 313 314 316 316 317 318 321 326 329 331 334 334 335 334 322 313 312 313 313 314 315 315 316 316 316 317 318 318 318 318 317 317 317 316 316 316 315 314 313 313 313 313 313 313 312 312 311 312 314 315 317 318 320 322 322 323 323 323 323 322 321 321 319 315 314 314 312 308 305 303 303 301 299 302 302 297
322 324 327 330 330 329 334 333 327 325 320 320 326 319 317 324 327 323 318 315 317 318 319 317 313 312 315 324 332 333 335 338 338 340 336 321 312 312 314 314 314 315 314 315 315 315 316 316 317 317 316 316 316 316 315 315 315 314 313 313 312 312 312 313 313 312 311 311 311 313 314 316 318 319 321 321 321 321 321 322 322 322 321 320 317 315 314 311 307 304 302 301 300 301 303 303 300
323 324 327 332 333 333 336 332 327 326 319 319 326 320 314 318 324 322 315 316 322 321 320 319 317 318 322 332 335 331 331 332 332 335 325 313 313 315 314 314 315 314 314 314 314 314 315 315 316 316 316 316 315 315 315 314 314 313 313 313 312 312 312 312 312 311 311 310 310 312 313 315 317 318 320 320 320 320 321 321 321 321 320 319 318 316 312 310 307 306 305 303 303 303 302 300 301
322 328 331 332 336 337 338 334 327 321 319 322 326 322 314 314 323 324 318 321 323 319 319 324 328 329 328 332 334 332 333 330 328 329 318 309 312 315 314 314 314 313 313 313 313 314 314 315 315 315 315 315 315 314 314 313 313 313 312 312 312 312 312 312 311 310 310 309 309 310 312 313 315 317 318 319 320 319 320 320 319 319 319 318 317 314 312 310 309 308 306 304 303 304 303 302 301
327 333 331 325 331 337 335 331 325 317 317 323 325 323 316 314 322 324 321 324 322 319 322 325 329 333 331 333 335 335 336 332 328 327 320 312 312 313 312 313 313 313 313 312 313 314 314 315 315 315 315 314 314 314 313 313 312 312 312 312 312 312 311 311 310 310 309 309 309 309 310 312 313 315 316 318 318 318 319 318 317 316 316 316 315 313 312 311 310 308 306 303 302 302 302 301 298
328 326 323 315 319 326 325 326 326 322 321 321 321 322 319 315 318 320 321 322 321 322 323 325 331 335 337 340 339 334 332 332 328 325 323 320 315 309 310 312 312 312 313 312 313 314 314 315 314 314 314 314 313 313 313 312 312 312 311 311 311 311 310 310 310 309 309 309 309 309 310 311 312 313 315 317 318 318 317 316 315 314 314 315 314 313 312 311 310 308 306 303 302 302 301 299 298
323 319 319 318 319 321 320 322 322 323 324 321 318 319 321 321 321 322 321 318 320 322 322 331 343 344 345 347 341 333 330 330 327 323 323 323 313 307 308 311 311 312 313 313 313 314 314 314 314 314 314 313 313 313 312 312 312 311 311 311 310 310 309 309 309 310 309 310 310 310 310 311 312 314 316 318 319 318 317 316 315 314 314 314 314 312 311 310 309 308 307 305 303 303 301 299 298
321 321 320 320 324 324 323 322 321 323 324 320 316 319 326 327 322 322 322 319 321 323 325 334 342 343 345 345 339 334 330 328 325 322 322 317 308 306 309 309 310 312 312 313 314 314 314 314 314 314 313 313 312 312 312 311 311 311 310 310 309 309 308 309 310 310 310 310 310 310 311 311 313 315 317 318 319 318 316 315 315 315 313 313 312 311 310 309 308 307 307 305 304 302 300 299 299
319 323 319 318 323 321 321 326 328 327 323 319 320 324 328 325 320 321 322 321 321 321 325 329 330 330 331 335 340 339 334 329 325 323 324 317 307 307 309 308 309 311 311 313 313 313 314 313 313 313 313 313 312 311 311 311 311 310 310 309 308 308 308 308 310 310 310 310 310 310 311 313 314 315 316 317 318 317 315 314 314 314 313 311 311 310 309 309 308 307 306 304 303 301 300 300 301
317 320 318 321 326 320 318 322 321 319 317 318 320 321 321 318 316 318 317 316 317 317 319 322 323 325 326 332 340 343 337 331 327 326 327 321 310 307 308 308 309 310 310 312 313 313 314 313 313 313 312 312 311 311 311 310 310 309 309 308 308 307 307 308 309 310 310 310 310 311 311 313 314 314 315 316 316 316 315 314 313 312 312 310 310 309 309 309 308 306 306 304 302 301 301 301 301
319 322 319 319 323 323 326 324 319 317 316 319 319 315 315 314 314 319 318 314 316 317 318 319 321 325 325 328 334 338 334 328 330 328 324 318 310 307 309 308 308 309 310 312 312 313 313 312 313 312 312 312 311 311 311 310 309 309 308 307 307 307 307 307 308 309 310 310 310 310 311 312 313 313 313 313 313 313 313 313 311 310 309 309 309 309 309 309 308 306 305 304 303 302 302 302 301
322 326 321 321 325 325 326 322 320 319 317 320 322 315 314 314 312 315 317 315 316 318 320 320 320 321 321 322 327 332 329 330 337 334 327 319 309 307 309 308 309 309 309 311 311 312 312 312 312 311 311 311 311 311 310 309 309 308 308 307 306 306 307 307 308 308 309 309 310 310 310 311 312 313 312 311 311 312 311 310 310 309 307 307 308 308 308 308 307 307 305 304 304 303 302 302 301
323 321 317 321 327 327 326 321 320 321 317 317 319 314 314 315 313 313 314 316 316 316 319 322 322 320 319 320 325 331 333 338 345 340 333 322 309 308 310 310 310 310 309 311 311 311 312 312 312 311 311 311 311 310 310 309 309 308 307 307 306 305 306 307 307 308 308 309 309 309 310 311 311 312 311 311 311 311 311 310 308 307 306 306 306 306 306 306 306 306 306 305 304 303 302 301 301
322 320 318 320 320 321 324 322 320 322 319 317 315 313 314 314 315 315 314 316 316 316 319 323 324 320 318 321 327 335 340 343 345 343 337 322 309 308 311 310 311 310 310 310 310 311 312 311 312 311 311 311 310 310 310 309 309 308 307 306 306 305 305 306 307 307 308 308 308 309 309 310 311 311 311 311 310 310 310 309 307 306 306 305 305 305 305 305 305 305 305 304 304 303 302 301 300
318 318 319 319 318 319 321 320 320 320 321 323 319 314 313 313 314 316 316 318 320 321 321 324 327 323 323 332 341 345 347 347 344 343 339 323 309 308 310 310 310 310 310 310 310 311 311 311 311 311 310 310 310 309 309 309 308 308 307 306 306 305 304 305 306 307 307 307 307 308 308 309 309 310 310 310 309 308 308 308 306 305 305 304 304 304 304 305 304 304 303 303 303 302 301 301 299
Wind_Speed
10 9 5 2 4 7 5 3 2 2 3 2 0 2 1 2 3 4 4 3 3 1 1 4 3 3 5 7 9 8 3 0 2 3 2 5 15 19 17 17 18 17 17 16 15 14 13 14 15 14 13 14 14 14 14 13 14 15 14 14 13 12 12 13 13 15 16 17 18 19 19 20 20 19 19 19 20 20 18 16 15 17 19 20 21 23 21 22 24 24 25 27 29 30 30 31 31
9 8 3 2 3 4 2 3 3 2 4 3 1 3 2 2 5 4 4 3 3 2 2 5 5 7 9 10 9 7 5 4 3 3 5 16 20 18 19 19 18 18 18 16 14 14 13 13 15 14 13 14 14 14 13 13 13 14 14 14 13 12 12 12 13 14 16 17 18 19 19 20 20 19 19 19 19 19 17 15 15 16 20 20 21 22 21 22 24 24 26 29 30 30 29 30 30
8 5 4 3 2 2 0 3 2 1 4 3 2 2 3 6 5 4 5 6 5 4 4 4 5 4 6 7 4 5 1 1 6 5 7 19 18 17 21 17 16 17 18 17 15 14 13 13 14 14 13 13 14 13 12 12 13 14 14 13 13 12 12 12 12 13 15 17 18 19 19 20 20 19 19 19 19 19 17 17 17 18 21 20 22 22 20 22 24 25 26 28 29 29 29 29 29
6 4 5 3 2 3 3 3 2 4 3 3 1 2 3 7 7 5 5 5 4 4 4 3 4 1 5 8 4 5 4 2 6 6 6 15 18 21 21 15 14 15 18 17 15 14 13 14 14 14 13 13 13 12 12 12 13 13 13 13 12 12 11 11 12 13 14 16 17 18 18 18 20 19 19 18 18 18 17 17 17 18 19 20 20 20 20 21 23 25 25 27 28 29 29 29 29
5 3 5 1 3 1 2 1 1 5 2 3 3 1 5 7 7 6 4 2 2 4 3 3 2 2 4 5 2 4 4 4 7 8 9 16 22 23 20 18 15 15 17 15 15 14 13 14 14 14 13 13 12 12 12 12 12 12 13 13 12 11 11 11 11 12 14 16 17 17 17 17 19 19 18 18 17 16 17 17 17 17 19 19 19 19 20 21 23 23 24 27 28 28 29 28 28
6 5 2 0 1 1 2 2 2 4 0 3 5 3 6 7 7 7 4 4 5 5 4 3 3 2 4 3 3 3 2 7 9 9 14 21 24 22 20 20 17 16 15 14 15 14 14 14 15 14 13 13 12 12 12 12 12 12 13 12 12 11 11 11 11 12 14 15 16 16 16 17 19 19 18 18 16 15 16 17 17 18 19 19 18 18 20 21 22 22 23 27 27 27 28 27 26
7 7 1 1 2 1 3 3 2 2 2 2 7 6 7 6 7 8 5 3 5 5 4 2 4 6 3 1 3 4 2 11 12 13 20 25 26 23 21 20 18 18 16 14 15 15 15 14 16 15 13 13 12 12 12 12 12 12 12 12 12 11 11 11 11 12 13 14 15 15 16 17 19 20 18 18 17 16 16 17 17 17 18 17 17 17 19 21 22 22 22 26 27 27 27 27 26
4 2 1 3 2 2 3 2 2 2 2 3 6 7 8 8 7 7 5 3 1 0 2 1 4 6 2 3 3 4 8 15 17 21 24 25 27 24 21 20 20 20 17 16 15 15 15 14 15 16 14 13 12 13 12 13 12 12 12 12 12 11 10 10 11 11 12 13 14 15 15 17 18 20 19 17 16 15 16 16 16 16 17 16 16 16 19 21 21 21 22 25 27 26 27 27 26
1 2 2 3 1 3 2 2 2 2 1 4 6 7 8 8 7 6 5 3 3 2 1 2 4 6 1 5 4 1 11 18 23 26 24 26 28 24 20 20 20 20 18 16 16 16 15 14 15 15 15 14 13 13 13 13 12 12 12 11 12 11 10 10 11 11 11 12 13 14 14 16 18 19 19 17 15 14 15 15 16 16 16 15 15 17 19 21 21 21 22 25 25 25 25 25 26
0 1 1 2 2 3 2 1 1 2 2 4 6 7 8 7 7 7 7 5 5 4 1 2 4 6 4 5 2 2 11 19 25 25 23 26 27 22 19 18 19 19 18 16 16 17 16 14 14 15 15 14 13 13 13 13 12 12 11 11 11 11 10 9 10 10 11 12 12 13 14 15 17 18 19 18 17 16 15 15 15 15 16 16 17 18 19 21 21 20 22 24 23 23 23 24 25
2 2 2 3 3 2 2 1 3 3 2 3 3 4 7 7 6 6 7 5 4 5 2 1 4 5 6 4 1 4 17 20 22 25 24 26 25 20 17 18 17 17 18 16 16 18 17 15 14 14 14 14 13 13 14 13 12 12 12 11 11 11 10 9 10 10 10 11 12 12 13 14 15 17 17 17 17 17 16 16 16 16 17 18 18 19 19 21 20 19 21 22 22 22 23 24 24
2 3 4 3 0 2 4 4 5 4 3 4 2 1 4 6 6 6 8 6 4 5 2 1 3 4 6 2 1 8 17 18 20 23 24 25 22 17 16 19 18 16 16 15 16 18 17 17 16 15 14 14 13 13 14 14 13 12 12 11 11 11 11 10 10 10 10 11 11 12 12 13 14 15 16 16 16 16 16 16 17 17 18 18 18 18 19 21 20 18 20 21 22 22 22 23 24
2 1 5 1 3 3 4 5 4 4 2 3 3 2 3 5 3 6 8 7 6 5 2 5 2 5 5 1 2 7 12 16 19 20 22 24 19 16 17 20 19 16 15 15 17 19 18 17 16 16 15 14 13 12 13 14 14 13 12 11 11 12 11 10 10 10 10 11 11 11 12 12 13 14 15 15 15 14 14 15 17 18 18 18 18 18 19 20 19 18 20 21 23 23 23 24 23
1 1 5 1 2 2 4 4 3 4 0 4 3 2 3 3 2 4 7 6 3 5 2 4 3 7 3 1 2 4 9 17 21 19 20 21 17 15 17 19 19 18 16 15 16 19 19 18 17 16 15 15 14 13 13 14 14 14 13 12 12 12 12 11 10 10 10 11 10 11 11 11 12 12 13 14 13 12 13 15 17 17 17 17 18 18 19 19 19 19 20 22 23 23 23 23 22
2 1 4 1 3 2 1 3 4 5 1 3 3 3 4 1 2 5 6 7 0 3 1 1 3 3 3 4 4 6 14 22 22 20 19 19 17 16 18 18 20 20 17 16 16 18 19 18 17 17 16 16 15 14 14 14 15 15 14 13 12 12 13 12 11 10 10 10 10 10 11 11 11 11 12 12 12 11 13 15 15 16 16 16 17 18 19 19 20 20 20 23 23 22 21 21 21
2 3 5 2 2 2 1 2 5 5 1 3 3 4 6 2 2 5 2 6 2 2 2 1 2 2 5 5 6 14 23 25 22 20 20 19 17 17 18 19 21 21 18 17 16 17 19 19 18 17 16 16 16 15 15 15 15 16 16 14 13 13 14 13 11 11 10 10 10 10 10 11 11 11 11 11 11 11 12 14 14 15 14 15 16 17 18 20 20 19 21 23 21 20 20 20 20
3 4 5 2 1 0 1 0 3 4 3 4 3 4 6 1 2 2 1 6 5 2 4 2 4 4 4 3 13 26 28 25 22 21 21 20 18 17 17 18 20 19 19 19 18 17 18 18 18 17 17 16 16 16 15 15 15 16 16 16 14 13 14 13 11 11 11 10 10 10 10 10 10 10 10 10 11 11 12 13 14 14 14 15 16 16 18 20 19 19 21 22 20 19 19 19 19
4 3 3 1 1 1 2 3 4 5 5 5 6 5 7 4 1 1 2 5 3 4 5 4 7 8 8 12 22 28 27 25 23 22 21 19 19 18 17 17 19 19 19 20 20 19 18 19 18 17 18 17 17 16 16 16 16 16 16 16 16 14 14 13 12 12 12 12 11 11 10 10 10 10 10 10 10 11 11 12 13 14 14 15 15 17 19 19 18 18 20 20 19 17 17 17 17
3 3 4 2 3 1 3 1 1 3 7 7 7 6 5 6 5 2 2 2 2 5 3 4 7 6 8 13 21 25 26 25 23 24 21 20 21 20 20 18 19 20 20 21 23 22 21 21 19 18 18 18 18 17 17 17 17 16 16 17 16 16 15 14 13 13 13 13 12 11 11 11 11 11 10 9 10 10 11 12 13 14 14 15 16 18 19 19 18 18 18 18 18 16 16 16 16
2 3 4 4 5 2 4 3 2 1 8 9 6 5 3 4 5 3 4 5 4 5 4 4 4 4 6 9 16 21 22 22 22 23 21 20 21 22 23 22 22 23 24 24 24 24 23 23 22 21 20 19 19 19 18 18 18 18 17 17 17 17 16 15 14 14 14 13 13 12 13 12 11 11 11 10 9 10 12 12 13 15 15 16 17 19 20 20 20 19 18 17 17 16 16 15 16
1 3 4 5 4 3 3 2 3 4 5 9 6 5 4 3 4 3 5 5 3 6 7 8 9 10 11 9 13 18 19 20 20 20 20 20 20 22 25 26 25 25 25 24 24 25 25 24 24 23 22 21 21 20 20 19 19 19 19 18 18 18 17 16 16 15 15 15 14 14 14 13 12 12 12 11 10 10 12 13 14 15 16 17 18 20 21 21 21 19 17 16 15 16 16 16 17
2 1 4 3 3 3 3 1 4 4 3 6 6 6 4 3 2 4 7 6 5 6 7 11 10 13 16 13 14 15 15 17 18 19 20 21 21 22 24 25 23 23 24 25 27 27 26 26 25 23 23 23 22 22 21 20 19 20 20 20 19 19 19 18 17 17 17 17 16 16 15 14 13 13 13 13 12 12 12 14 15 16 17 18 19 21 22 21 20 19 17 16 15 15 16 17 18
3 1 1 2 3 4 2 0 3 4 6 5 4 3 2 4 1 3 7 6 7 6 7 9 9 15 20 18 16 14 13 16 19 23 24 24 24 24 25 26 25 25 26 28 29 28 28 28 27 24 23 24 24 23 22 21 20 20 20 21 21 20 20 20 19 19 19 19 19 19 18 17 16 15 15 14 14 13 14 15 16 17 18 20 21 22 22 20 18 18 17 17 16 16 17 18 20
5 2 1 3 4 4 2 1 2 5 7 2 2 3 2 5 3 0 3 7 6 5 4 7 9 16 20 16 14 14 16 19 22 26 27 27 28 27 26 27 28 27 27 28 29 29 29 30 29 26 24 25 24 23 23 22 22 20 20 22 23 21 21 21 21 20 20 20 21 21 21 20 19 18 18 17 16 15 15 16 17 18 19 21 23 23 21 19 17 17 18 17 17 17 19 20 21
3 3 1 2 3 2 2 2 3 4 4 2 4 4 2 6 4 1 5 9 6 6 4 8 12 14 15 13 13 13 14 18 21 23 24 26 27 25 25 25 26 27 27 27 28 29 29 29 29 29 27 25 25 24 24 24 23 22 21 23 24 23 23 22 22 21 21 22 23 24 23 22 21 21 20 19 18 18 17 17 18 19 21 23 24 22 20 18 18 17 17 18 18 19 20 21 22
2 4 3 3 2 1 2 3 2 1 1 3 4 1 3 4 2 2 8 9 7 6 6 8 11 11 10 11 12 12 12 16 19 21 25 25 24 23 25 25 26 29 30 28 28 30 29 27 28 31 30 26 25 24 24 24 23 23 23 23 24 24 24 23 22 23 23 23 24 25 25 24 23 23 22 21 21 20 19 18 19 20 22 24 24 21 19 17 18 19 19 19 20 20 20 21 22
2 6 4 5 4 2 2 2 0 1 1 3 3 1 4 3 2 3 8 7 7 7 7 7 9 10 10 9 10 13 14 18 23 22 21 21 22 25 27 27 28 30 30 30 30 30 29 27 26 30 32 29 27 26 25 24 23 23 24 23 23 24 24 24 24 24 24 25 26 26 27 26 25 24 23 23 23 22 21 20 20 22 24 25 23 20 18 17 19 21 21 21 21 21 21 22 22
4 7 5 3 3 1 2 3 1 1 2 1 4 0 3 2 1 6 8 4 8 10 7 7 8 9 9 9 9 11 14 19 23 21 19 23 27 29 30 31 32 31 31 32 32 31 29 28 27 29 33 33 30 29 27 25 24 24 23 22 23 24 24 24 25 25 26 26 26 27 28 27 26 26 25 24 25 25 24 23 23 23 26 26 22 21 20 19 21 23 22 21 22 22 22 22 22
5 7 5 2 4 3 2 2 1 2 1 3 3 3 4 1 6 10 6 1 7 10 8 7 8 7 8 9 8 8 13 18 19 20 24 28 31 32 33 35 34 33 33 32 31 32 31 29 28 29 31 33 34 33 30 27 25 23 23 23 22 22 23 24 26 26 27 27 26 27 28 27 27 27 27 26 26 27 26 25 25 26 28 27 23 23 22 22 24 24 22 21 23 24 24 23 23
3 3 5 2 5 4 6 2 2 3 0 3 3 1 6 6 10 10 5 5 7 8 8 7 7 7 7 7 7 8 12 15 18 24 29 30 31 32 33 35 35 34 33 32 32 33 31 30 30 29 30 32 32 34 34 31 29 25 23 23 22 22 22 23 25 26 27 27 26 26 27 27 28 28 28 28 27 28 29 27 27 28 29 29 27 26 25 25 27 27 25 24 24 24 24 24 23
2 1 2 3 3 4 6 1 4 3 1 3 6 2 7 8 10 9 4 7 9 7 8 7 6 6 6 7 7 8 10 16 22 28 31 31 31 31 32 33 34 35 33 33 34 34 33 32 31 31 32 32 31 33 35 34 32 29 25 22 22 23 23 23 23 24 26 26 25 26 27 27 28 30 29 30 30 31 31 31 30 31 31 31 30 29 27 28 29 29 28 27 26 25 25 25 25
3 3 3 3 3 3 6 0 6 5 2 2 6 2 7 8 9 7 3 5 8 7 7 6 7 7 7 7 8 8 9 16 21 25 29 31 31 32 33 33 33 35 35 34 34 34 34 33 33 33 33 33 32 33 35 34 33 31 29 25 22 21 22 22 22 23 24 24 25 26 29 30 30 31 31 31 33 33 34 34 33 32 32 33 33 31 29 30 31 30 29 28 28 28 28 27 26
3 3 2 2 3 2 4 3 2 5 2 1 1 2 4 5 6 6 5 1 5 6 7 8 8 8 8 7 7 8 8 11 14 20 27 30 32 33 33 33 34 35 36 35 34 34 34 34 34 34 33 33 32 32 34 34 34 32 31 30 26 22 21 21 22 23 24 24 24 25 28 32 32 32 32 32 33 34 35 35 35 34 34 35 35 33 32 32 33 32 30 29 31 32 31 29 27
4 1 1 3 3 4 2 3 4 3 5 1 2 3 6 8 7 6 5 2 4 6 8 9 8 8 8 7 8 8 8 9 10 18 27 31 33 34 34 34 34 34 35 36 35 35 35 34 35 35 34 33 33 34 34 34 33 32 31 31 31 27 24 23 23 24 26 26 26 26 26 29 32 33 32 31 31 33 35 35 35 34 35 36 35 34 33 33 33 34 34 32 31 33 32 30 29
3 3 2 3 2 3 3 3 3 2 3 2 2 3 9 12 11 8 7 5 6 8 9 8 9 9 8 7 8 9 9 10 13 21 30 32 33 34 34 33 32 33 35 36 36 35 34 35 35 35 35 34 35 35 34 34 32 30 30 30 31 30 28 26 25 26 27 27 27 28 26 25 29 33 34 30 29 32 34 35 36 35 36 36 36 35 35 35 34 34 35 34 31 31 32 32 32
7 5 5 3 2 1 3 2 2 3 3 4 5 6 8 10 12 11 9 7 8 10 9 8 8 8 8 7 8 10 10 11 17 23 27 30 33 34 34 33 32 33 34 35 35 35 35 35 35 36 36 35 36 35 34 33 32 30 29 29 29 30 29 27 26 27 27 28 29 30 29 27 24 27 30 30 30 33 34 34 35 36 37 37 37 38 38 37 36 36 36 36 34 30 30 32 33
7 5 4 4 4 1 3 2 4 0 3 5 7 7 8 9 11 12 11 8 6 9 10 9 9 9 8 8 9 11 11 11 15 19 23 28 32 32 32 31 30 30 32 33 35 36 37 37 37 37 37 36 36 36 36 35 34 32 31 32 32 31 30 29 28 28 27 28 29 31 32 32 28 24 24 26 30 33 33 34 35 35 36 37 39 40 39 38 38 37 36 36 36 34 33 33 35
6 5 5 2 2 2 3 2 5 3 2 5 4 4 10 10 10 11 9 9 9 10 10 11 12 11 8 9 11 12 10 8 9 12 18 24 27 28 29 29 29 30 31 33 35 37 37 37 38 38 38 38 38 38 38 37 36 36 34 35 35 33 33 32 31 31 30 29 29 31 32 33 33 30 25 24 28 31 31 33 34 36 36 37 39 39 39 39 38 37 37 35 33 35 36 36 37
5 4 5 2 1 2 2 3 4 2 2 4 5 5 10 11 10 11 10 11 12 11 10 11 11 10 9 9 11 12 10 8 8 9 13 19 23 24 26 27 29 31 31 32 34 35 35 36 38 38 38 38 38 38 38 37 36 35 33 32 32 32 32 33 32 32 31 30 30 30 32 32 33 33 30 27 28 30 31 31 33 36 38 38 39 39 38 40 40 40 41 39 34 32 31 37 39
4 4 5 1 3 1 2 4 4 1 1 2 4 5 10 11 8 10 12 12 13 11 9 9 9 10 11 11 11 11 11 10 9 9 8 11 16 20 23 27 29 30 30 31 32 33 34 35 36 37 37 37 37 37 36 35 33 31 30 28 27 28 28 29 30 31 31 31 31 30 31 32 31 30 30 30 32 34 35 34 35 38 40 40 41 41 40 41 42 43 42 42 41 35 30 36 37
2 3 5 3 2 2 3 2 2 3 4 2 4 5 7 6 5 7 8 5 8 9 8 9 9 10 11 10 10 10 10 10 9 9 7 8 13 20 24 27 28 29 30 32 33 34 34 35 35 34 34 33 34 33 32 32 30 29 28 26 24 24 24 25 27 30 31 32 33 32 32 32 30 27 29 32 35 37 39 37 38 40 41 43 43 43 44 44 45 46 45 43 44 41 36 37 34
4 1 4 6 5 5 3 3 4 5 5 3 3 4 6 5 5 7 6 6 7 6 5 9 11 10 9 9 10 9 8 7 7 8 7 9 14 18 22 24 26 28 30 31 32 33 33 33 33 32 31 31 31 31 31 30 30 29 29 27 25 24 24 25 28 30 30 31 33 33 31 30 28 28 30 32 32 35 39 38 39 41 42 44 44 43 44 45 46 47 47 46 45 44 41 40 36
1 3 4 5 6 7 4 4 4 1 3 3 2 2 5 8 7 9 8 10 11 8 7 10 11 10 8 8 8 8 7 6 6 6 7 9 13 15 18 22 25 27 28 29 29 30 30 30 31 31 31 31 31 30 30 30 30 30 30 29 28 26 25 26 27 26 26 28 29 29 29 28 27 29 30 30 29 31 35 37 38 39 40 41 42 42 43 44 47 48 49 49 46 44 43 43 40
2 5 3 5 7 6 5 6 3 2 3 5 2 3 3 7 8 9 8 10 11 9 11 13 11 11 8 6 7 8 8 7 6 6 6 8 13 17 19 22 24 25 25 26 27 28 29 29 30 30 30 30 30 30 30 29 30 29 29 28 27 26 25 25 23 22 22 23 25 26 26 27 28 29 29 28 27 27 31 33 34 35 36 39 41 42 44 45 46 46 46 45 43 43 44 44 42
5 5 4 5 7 6 5 6 2 1 2 5 4 2 2 7 7 6 4 5 8 9 13 13 11 11 8 6 7 6 6 5 5 7 6 8 13 17 19 20 22 23 23 24 26 27 28 28 29 29 29 29 28 29 29 29 29 28 28 27 27 26 25 23 21 20 20 20 22 24 25 26 27 29 29 28 27 27 28 30 31 33 35 38 41 43 43 44 45 44 44 43 42 43 42 40 41
4 3 5 5 5 5 5 5 3 3 2 5 5 4 2 5 6 4 1 2 7 9 9 10 9 9 6 6 6 4 3 2 2 3 4 6 11 16 17 18 20 21 22 23 24 25 26 27 27 28 28 28 28 28 29 29 28 28 28 28 28 27 25 23 20 19 20 19 20 23 25 26 26 28 29 29 28 29 29 30 32 35 36 39 42 43 43 43 44 44 45 46 46 44 41 37 38
5 6 7 7 6 5 4 3 4 3 4 6 8 9 4 5 6 4 3 4 6 4 4 7 5 2 3 5 5 6 5 4 3 2 2 4 6 12 15 17 18 20 21 22 23 24 26 26 27 27 28 28 28 28 29 29 29 28 29 29 29 29 27 25 23 22 21 21 22 24 25 27 27 27 27 28 29 28 29 31 33 35 37 39 41 42 42 43 44 45 45 45 45 44 43 40 36
7 5 5 4 4 4 5 5 4 1 5 6 6 6 5 5 6 4 5 7 5 5 2 4 2 1 4 6 6 6 5 5 5 4 3 4 6 10 14 16 18 19 21 22 23 24 25 26 27 27 27 27 28 28 28 28 29 29 30 30 30 29 28 27 26 25 25 25 25 26 26 27 28 28 27 28 29 29 29 31 33 34 35 38 39 40 41 43 44 45 45 44 43 42 41 38 35
6 5 6 4 2 2 3 3 0 3 6 4 2 2 3 6 6 5 8 10 6 5 4 4 6 6 6 6 6 6 5 5 5 5 5 4 5 8 13 16 18 20 22 24 24 25 26 27 27 27 27 27 27 28 28 28 29 30 30 30 30 29 28 28 27 27 27 26 25 26 27 28 29 29 30 30 30 30 30 31 33 34 35 37 38 39 41 42 43 43 44 44 42 40 38 36 36
5 6 6 5 3 1 3 3 1 4 5 4 1 1 3 5 4 7 11 11 8 5 5 6 7 7 8 7 6 6 5 5 5 5 6 5 6 9 13 15 18 20 22 23 24 26 26 27 27 28 27 27 28 28 29 29 30 30 30 31 30 29 28 28 28 28 27 26 26 25 26 27 28 29 30 31 31 31 30 31 32 34 35 36 38 39 40 41 42 43 43 43 42 41 39 37 36
5 5 6 6 5 5 5 3 3 5 4 3 2 1 3 2 3 7 8 8 8 6 6 6 6 7 5 4 4 5 6 6 5 5 6 6 9 12 14 16 18 20 22 23 24 25 26 26 27 28 28 29 29 29 30 30 30 30 30 31 31 30 29 28 28 28 28 27 26 25 25 26 26 26 26 28 29 30 29 29 31 33 35 36 37 38 39 39 40 40 41 42 42 40 38 37 36
3 3 5 4 6 5 3 3 6 4 1 2 2 3 5 4 6 8 7 8 9 7 6 5 7 6 2 2 4 6 7 6 5 6 6 7 11 15 17 18 19 20 21 23 24 25 26 26 27 29 29 30 30 30 30 30 30 29 30 31 31 30 29 28 28 28 28 27 25 25 25 25 25 24 23 25 28 29 29 29 30 31 34 36 36 36 37 38 38 38 39 39 39 39 38 37 36
2 3 4 5 5 7 3 3 0 3 2 4 2 5 6 3 7 9 8 10 9 7 8 7 8 6 2 5 7 6 7 6 6 7 7 8 12 17 19 20 20 21 22 24 25 26 27 27 28 29 29 29 30 30 30 30 29 29 29 30 30 30 31 31 30 30 29 27 25 25 24 24 24 22 22 24 26 27 28 29 30 31 34 36 35 34 36 36 36 37 38 38 39 39 37 36 35
5 4 5 3 2 3 4 1 2 2 4 4 2 7 6 2 6 5 3 3 5 6 7 9 10 9 7 8 7 7 7 5 6 7 8 10 12 15 18 19 21 22 23 24 25 26 26 27 28 28 29 30 31 30 30 29 29 29 29 28 29 30 31 32 32 31 29 28 27 26 26 25 24 23 23 24 25 26 28 29 31 31 33 35 34 33 35 36 36 36 36 36 37 37 35 34 34
5 4 4 4 2 1 2 3 2 1 4 4 3 5 4 6 7 2 3 6 7 8 8 8 10 10 9 9 8 8 7 3 4 6 7 8 10 14 17 19 21 22 22 23 24 25 26 27 27 28 29 29 30 30 30 29 29 28 28 28 28 29 30 31 31 31 30 30 29 27 27 27 25 24 25 25 25 26 26 27 29 31 33 34 33 33 33 35 35 35 35 35 35 36 36 34 34
1 1 2 2 3 4 3 4 4 4 4 4 5 4 5 8 6 5 6 8 8 9 8 8 10 10 9 8 7 7 6 4 5 6 7 7 10 15 18 20 22 22 22 23 24 25 27 27 27 28 28 28 29 30 30 29 29 28 28 27 27 28 30 31 31 31 31 31 30 29 28 27 25 26 26 25 24 24 24 24 25 29 32 34 33 32 32 32 33 34 34 35 35 36 36 36 34
3 3 4 2 1 2 2 1 3 4 4 3 3 6 8 7 4 6 9 9 9 9 8 8 9 9 8 7 7 7 6 6 6 6 6 6 8 13 17 20 21 21 22 23 24 26 27 27 28 28 28 29 30 30 30 29 29 28 28 28 27 27 28 31 31 31 32 32 31 30 29 27 27 27 26 24 23 22 22 23 24 26 30 33 34 33 32 32 31 32 33 34 35 36 36 36 36
8 7 8 8 5 4 2 3 2 2 3 4 4 6 12 5 5 7 8 7 7 7 7 8 8 8 8 7 7 6 5 5 6 6 6 5 8 12 15 18 19 20 22 23 24 25 26 27 28 28 29 30 30 30 29 29 29 29 29 29 28 26 27 30 32 33 33 33 32 31 29 27 28 28 25 23 22 22 22 23 25 26 29 32 34 34 34 34 33 33 34 34 35 37 37 37 37
Wind_Direction
316 312 308 19 8 348 341 83 53 319 80 83 171 95 216 178 115 100 83 61 63 1 68 93 64 60 92 112 123 111 70 37 176 142 159 154 145 156 166 165 160 157 156 150 147 138 137 139 137 138 133 130 130 124 120 120 118 113 109 103 97 92 88 84 78 73 69 66 66 70 78 82 80 80 82 84 85 85 88 91 92 91 88 82 78 79 79 80 82 83 87 92 93 91 87 86 87
317 309 316 351 359 10 307 98 79 318 59 52 319 121 169 50 59 97 112 93 120 184 121 103 86 78 104 125 128 94 41 1 94 110 113 130 134 147 155 156 157 157 156 151 149 142 138 136 133 136 132 132 133 127 122 123 120 115 113 106 101 95 90 85 79 74 69 68 68 72 81 84 82 81 83 85 86 88 89 87 89 89 85 79 77 79 79 80 84 87 91 95 94 91 88 88 89
320 316 345 353 344 48 42 40 90 100 72 98 286 277 93 79 98 125 126 120 144 146 103 82 68 75 93 98 78 73 100 342 94 93 115 132 133 145 149 151 155 155 158 155 151 145 139 136 131 130 130 131 133 129 123 125 124 120 117 109 105 98 90 84 80 75 68 68 67 71 81 86 85 83 84 86 87 89 88 84 85 86 83 78 80 81 80 81 87 92 93 95 93 90 89 90 91
324 326 333 10 37 28 55 45 143 118 100 151 219 292 93 118 136 125 129 140 150 122 102 72 51 340 80 94 90 83 132 147 115 117 132 143 140 147 149 149 153 151 158 158 153 148 141 138 132 130 131 132 133 130 126 126 126 124 120 113 108 102 93 87 81 74 68 67 67 69 78 86 88 86 87 87 88 93 94 90 85 82 81 80 83 84 83 83 90 95 94 96 94 91 90 91 92
322 321 299 8 74 38 83 61 113 95 130 187 141 165 135 136 137 126 125 118 102 87 89 101 86 306 64 94 128 106 127 121 129 130 132 147 144 145 148 151 153 151 159 158 154 152 146 143 136 134 134 134 135 133 130 127 126 126 123 116 110 105 99 92 85 77 72 70 70 72 78 89 93 91 89 89 92 99 101 99 93 87 86 86 87 86 84 85 90 93 95 98 95 92 92 91 93
331 349 288 228 116 159 91 54 57 67 262 172 127 160 156 138 136 129 100 58 35 55 73 94 119 101 64 28 62 87 150 136 135 139 142 151 150 146 146 152 154 155 161 157 157 156 149 148 143 140 140 139 138 136 133 130 129 127 125 121 115 109 103 97 91 82 77 75 75 77 83 94 100 95 92 94 94 96 99 99 97 94 92 91 89 86 85 87 89 91 95 98 96 94 92 89 91
340 351 10 60 349 61 88 105 134 84 7 108 126 153 151 137 138 123 107 74 18 19 46 66 124 103 81 76 73 21 87 144 140 144 150 153 154 148 145 153 155 158 164 159 160 159 152 152 150 149 147 144 143 141 138 136 133 129 128 127 121 113 108 102 95 88 82 80 79 81 85 96 105 101 96 98 96 94 96 96 96 96 94 92 89 87 88 90 91 92 95 97 97 94 91 88 89
330 316 81 77 13 17 84 111 153 153 28 56 122 143 142 143 139 122 137 132 75 13 35 0 96 92 48 73 103 13 86 130 136 141 147 149 154 150 147 155 156 160 164 161 161 160 156 155 154 153 151 150 149 148 144 141 137 132 133 132 126 119 115 108 100 94 87 84 82 84 86 95 106 107 101 101 101 97 96 95 97 96 93 94 92 93 94 95 96 95 97 99 98 94 91 90 89
272 191 21 76 55 11 56 66 67 134 93 78 110 133 140 146 136 124 135 128 142 138 135 217 92 106 129 64 99 76 97 124 134 139 144 148 152 149 148 156 162 163 163 162 162 163 160 157 157 156 154 155 155 153 147 144 141 136 135 134 129 125 121 114 107 100 95 91 87 88 90 95 106 111 106 102 103 100 99 98 99 97 96 98 96 96 98 98 97 96 101 102 99 95 92 90 90
20 146 43 84 29 21 34 334 77 111 139 122 122 141 149 149 137 132 127 126 138 111 219 216 88 115 130 92 110 157 133 136 136 139 146 149 148 147 148 160 170 166 164 165 165 166 162 158 157 157 157 158 160 159 153 147 145 141 139 138 134 132 128 121 114 107 103 98 94 93 96 99 106 114 112 108 106 105 106 105 103 101 99 98 96 97 98 99 97 98 104 104 100 97 93 91 92
32 337 81 83 28 47 156 154 123 129 146 111 90 145 156 148 130 126 122 117 121 121 204 8 86 126 102 99 257 157 148 147 145 146 148 149 150 151 149 162 174 170 168 168 168 169 166 162 157 156 158 159 163 165 161 154 150 148 147 145 141 140 136 130 122 116 112 106 101 99 101 104 108 114 117 116 114 114 113 110 109 105 103 101 101 101 102 103 99 102 106 103 101 99 96 96 95
53 316 67 86 139 164 166 145 147 137 108 103 92 223 138 115 109 124 128 128 130 125 192 186 132 133 94 83 250 154 150 151 152 152 153 153 155 155 149 162 173 173 171 168 170 172 169 167 160 158 159 158 160 164 166 162 159 156 155 153 149 149 145 141 132 126 124 116 110 106 107 109 112 116 119 121 121 123 120 119 119 112 107 106 105 104 106 105 101 105 109 104 104 103 102 101 101
106 220 79 103 206 152 143 137 155 116 88 168 176 213 107 87 129 158 141 131 140 126 201 226 156 89 99 85 127 156 161 157 152 153 158 156 157 155 150 160 170 175 173 168 170 173 173 172 166 163 162 159 157 159 165 167 168 165 164 160 155 156 152 150 142 135 133 127 121 116 114 113 115 118 122 124 125 126 123 125 125 117 112 111 109 107 109 106 104 112 112 108 110 109 107 106 106
147 179 104 179 272 131 142 115 126 108 236 242 184 169 110 94 166 146 124 111 128 150 205 248 115 90 103 103 126 188 175 162 156 153 155 155 158 156 153 158 167 174 175 172 172 175 176 176 172 170 168 164 160 162 166 169 173 173 172 169 163 161 159 158 152 145 141 136 131 126 122 119 119 121 125 127 127 125 118 121 123 120 118 118 115 114 113 109 112 118 114 114 116 113 111 109 109
168 159 98 105 346 4 168 110 126 120 161 230 182 154 98 91 109 75 112 124 228 223 209 350 89 99 156 159 196 203 166 160 160 156 154 158 159 156 154 154 161 167 171 173 172 177 180 180 178 175 174 171 167 167 169 169 173 177 177 176 170 165 165 166 160 151 147 144 139 134 130 125 124 124 126 128 127 122 116 119 122 122 122 121 119 118 117 115 120 121 117 121 119 115 114 112 113
139 105 75 54 346 346 291 100 108 107 184 205 182 129 92 336 74 79 161 135 135 285 38 24 23 93 157 183 187 162 154 156 159 159 158 161 160 155 152 150 155 159 165 171 170 176 183 184 183 182 180 178 176 172 173 173 173 179 181 181 176 171 173 173 165 158 154 152 148 142 138 133 130 128 130 128 125 120 117 120 122 123 123 121 120 120 118 119 123 122 122 126 121 117 117 116 117
64 75 69 14 280 78 302 131 134 140 198 201 186 131 119 308 20 86 307 89 115 86 61 40 11 63 119 147 148 148 151 155 158 159 158 160 160 156 154 153 157 160 164 170 173 175 180 186 185 186 187 184 184 178 178 178 176 180 183 183 180 176 179 178 170 164 162 160 158 152 147 144 138 135 135 133 129 124 122 123 124 126 126 125 124 122 121 122 126 125 127 130 123 121 121 119 119
61 80 101 237 231 80 295 235 182 142 150 186 192 160 133 159 190 146 60 59 89 95 78 65 37 46 85 115 135 144 152 157 162 162 157 158 161 161 161 163 166 169 170 172 178 180 179 185 186 187 189 189 189 186 183 184 182 183 184 185 183 182 184 182 176 171 170 168 165 162 159 156 148 143 141 140 138 131 128 129 129 130 130 130 128 126 125 127 129 128 133 136 129 124 123 120 118
100 120 115 215 200 109 317 251 136 126 154 177 193 175 149 175 172 136 153 173 131 111 95 77 68 58 91 119 135 145 154 159 166 168 165 165 169 171 171 173 175 176 180 180 183 187 184 185 189 189 189 190 192 191 189 188 187 186 187 188 188 187 188 186 183 179 177 175 171 170 169 165 157 152 149 147 146 139 135 134 135 134 134 134 133 132 132 132 132 132 136 141 138 130 124 120 118
155 112 105 231 194 143 347 32 12 286 157 159 190 180 160 187 158 140 173 169 165 163 170 123 127 166 151 146 146 151 158 163 168 172 173 175 178 181 179 182 185 185 187 187 188 191 191 189 191 193 192 191 193 195 192 190 191 190 190 191 192 192 191 191 189 186 183 180 175 175 175 170 166 163 158 155 153 148 143 142 143 142 141 141 141 139 137 135 135 135 137 140 142 137 130 123 120
137 106 152 220 162 116 327 16 9 337 145 155 163 130 133 185 154 156 148 136 221 226 200 185 185 178 170 172 164 162 164 169 174 177 180 182 185 189 189 190 192 193 191 191 193 194 195 195 194 195 195 193 194 198 196 193 194 194 193 193 195 195 194 194 193 191 188 184 177 178 181 175 174 173 169 165 162 158 153 151 152 151 150 149 149 145 140 140 140 140 140 140 140 138 135 130 127
69 104 163 194 122 113 281 330 15 354 104 124 116 118 154 161 146 173 146 148 225 231 206 200 191 169 169 174 169 169 171 176 182 184 187 188 189 193 196 196 195 197 197 199 202 201 200 199 197 197 198 196 195 198 197 195 197 198 197 196 196 196 197 196 196 195 191 186 180 180 186 183 182 182 179 174 170 167 162 160 159 158 157 154 153 149 145 146 146 146 146 144 143 142 138 135 134
101 215 79 42 103 125 234 339 9 26 86 95 112 147 156 119 190 204 156 185 216 212 196 193 190 168 165 163 162 171 180 185 190 192 193 192 194 195 197 198 197 197 201 206 208 207 206 203 201 199 203 203 198 197 197 195 197 200 201 200 200 197 197 198 199 198 193 188 184 186 192 192 190 189 187 182 178 174 168 165 165 163 161 157 156 154 151 151 151 151 151 148 147 146 141 139 139
103 168 11 52 94 115 166 148 39 57 92 131 141 113 129 152 196 267 192 226 217 209 187 142 148 152 152 155 166 179 185 190 197 198 196 196 198 198 197 200 199 198 203 209 209 207 207 206 203 199 203 205 201 199 199 199 198 200 202 203 204 200 198 200 201 201 197 192 189 193 197 197 197 195 192 188 183 178 173 170 169 168 165 162 160 159 158 156 156 155 153 151 149 147 144 142 142
91 150 190 98 82 116 132 97 65 62 96 97 86 99 202 192 177 158 235 240 215 196 153 111 121 135 147 163 177 183 186 194 201 202 202 203 202 200 200 202 201 201 205 208 208 208 209 210 207 200 200 203 203 200 200 205 205 203 203 204 205 203 201 203 203 204 202 198 195 198 201 200 200 200 197 191 187 181 176 175 173 172 170 166 164 163 164 162 162 160 156 153 149 147 145 144 144
190 144 145 109 100 141 101 76 64 59 80 69 79 19 279 227 202 263 240 226 198 167 131 125 130 141 163 174 181 185 188 196 200 202 205 205 204 203 204 204 204 205 207 209 209 211 211 213 212 202 198 200 199 199 200 204 206 205 203 204 205 204 205 206 206 207 208 206 202 202 205 206 204 204 200 194 191 186 179 179 178 176 173 170 168 168 171 171 167 165 160 153 150 148 145 145 145
156 114 108 115 138 158 94 108 109 54 35 73 109 278 283 274 319 268 255 228 171 148 142 149 144 158 179 181 188 191 192 199 199 198 200 202 204 206 207 206 208 210 209 210 213 216 214 214 213 204 199 198 196 198 202 203 204 205 204 205 206 206 207 208 209 210 210 209 208 207 208 211 209 206 205 199 194 190 184 183 182 180 175 172 173 174 175 176 170 165 161 155 152 149 145 146 146
120 107 86 86 111 25 60 115 196 60 37 84 115 287 290 359 316 231 248 237 155 155 166 168 163 176 186 187 194 194 201 205 199 192 191 198 204 207 207 206 208 210 210 211 214 216 215 213 210 205 202 201 199 198 201 204 205 205 206 209 211 211 211 210 210 210 211 211 212 212 211 212 210 207 207 204 197 193 190 187 185 183 178 175 178 181 180 178 171 164 161 157 153 150 147 145 145
118 103 88 0 24 359 262 151 174 105 41 255 111 356 303 196 235 240 244 200 143 155 171 180 186 192 193 196 198 199 210 207 196 195 199 203 206 206 207 208 207 209 211 212 213 212 213 212 207 205 205 206 207 204 203 204 204 205 207 210 212 214 214 213 213 212 212 212 214 215 216 215 212 208 206 204 201 197 195 191 188 186 183 181 184 187 184 180 174 166 160 155 151 150 147 144 145
112 93 100 77 23 327 260 200 115 106 25 298 94 316 281 240 245 261 242 163 133 153 182 193 199 203 204 204 205 211 215 205 196 203 208 209 211 210 211 212 209 209 211 210 209 209 209 208 205 206 207 208 210 208 207 207 205 207 209 209 211 214 216 217 217 215 214 214 215 217 219 218 215 210 205 202 202 200 199 195 192 190 187 187 189 192 190 183 177 170 163 157 152 149 145 145 147
102 82 64 83 88 291 286 176 134 131 306 1 85 182 270 268 265 283 256 166 148 173 205 211 210 212 213 211 212 220 219 210 206 208 211 214 215 215 216 216 212 211 211 209 209 209 208 207 207 209 210 211 212 208 207 208 206 208 209 207 205 210 216 219 220 219 218 218 219 220 221 221 217 212 206 202 201 203 201 197 196 193 191 191 191 193 192 184 178 173 168 161 153 150 148 147 148
69 93 328 348 135 265 311 280 161 158 274 13 93 200 273 280 277 298 316 150 153 184 219 230 227 222 221 222 216 220 227 221 215 213 213 216 217 218 219 219 214 212 212 211 210 208 208 211 211 212 212 213 214 210 209 209 208 207 209 208 205 206 212 217 221 223 224 224 222 223 222 220 216 212 209 205 202 203 202 198 198 196 193 192 192 192 191 186 180 174 171 169 159 152 151 148 149
1 105 226 281 135 222 304 313 221 154 142 325 129 224 270 292 297 314 331 127 157 190 224 231 230 229 223 222 219 218 226 229 225 219 216 216 218 220 222 221 217 213 212 212 210 207 208 211 211 212 213 213 212 209 209 210 210 209 210 212 212 214 217 221 223 225 228 227 223 223 222 219 216 213 211 208 205 205 204 200 199 198 194 193 192 190 189 187 182 174 168 169 166 159 155 151 148
314 62 207 246 164 162 225 287 284 120 109 236 236 238 256 273 285 292 296 242 182 208 232 236 232 234 229 217 220 223 219 224 227 221 218 216 218 222 223 223 220 215 213 213 212 211 210 210 211 212 213 212 209 208 208 209 211 212 214 215 216 221 227 231 229 227 226 226 224 223 221 217 215 214 212 210 210 210 207 204 203 201 196 194 193 189 186 183 180 176 168 165 168 164 157 151 148
200 188 190 268 208 167 198 241 253 123 109 234 232 248 258 270 278 272 257 221 203 223 231 236 237 235 234 220 217 223 222 226 228 221 219 218 219 220 222 223 220 216 213 212 212 212 211 211 211 211 212 211 210 210 211 211 213 214 215 217 219 224 230 232 229 224 222 222 222 221 218 211 210 211 211 210 215 215 210 206 205 203 200 197 194 189 184 179 175 174 170 164 163 162 158 153 149
158 172 156 164 175 237 242 244 261 144 136 244 231 236 253 265 276 277 266 232 211 232 239 242 246 239 236 228 222 225 222 229 233 226 222 220 220 220 219 220 219 216 214 212 210 210 211 211 210 210 211 211 210 210 210 211 211 211 213 214 217 220 223 224 221 220 219 219 220 220 217 211 206 208 210 212 217 217 212 209 207 203 202 200 196 190 187 184 180 177 172 166 160 156 156 154 151
127 116 106 139 138 310 274 258 295 107 133 250 237 244 262 261 267 271 274 268 233 232 240 242 243 241 235 230 232 230 225 234 237 231 226 223 222 220 217 216 215 213 212 211 209 209 210 210 209 208 209 209 208 208 208 208 208 208 210 213 215 216 216 217 217 217 218 219 220 220 219 218 214 213 216 215 214 212 210 211 209 205 203 202 200 196 191 187 184 178 171 167 164 158 156 156 155
93 102 79 34 123 183 248 247 296 342 93 267 284 292 271 260 261 265 272 279 259 229 224 235 236 235 235 232 239 240 237 245 240 229 226 222 220 216 213 210 208 208 208 209 209 209 209 209 210 210 209 209 210 211 210 211 212 212 212 215 217 217 216 217 218 218 219 220 221 221 222 223 221 221 223 222 217 213 209 209 209 208 206 204 201 196 192 187 183 179 173 166 165 163 162 162 161
78 90 92 18 278 180 288 313 314 3 114 268 333 335 279 267 258 257 255 253 255 240 220 230 233 234 238 232 238 244 246 251 243 233 226 218 214 209 206 206 207 208 208 207 208 209 208 209 212 213 212 212 213 214 215 215 217 216 217 218 219 218 218 219 220 221 222 222 223 223 223 224 226 226 225 225 225 221 218 216 214 211 209 204 198 191 188 186 183 183 181 175 169 164 166 168 169
80 95 108 238 268 159 272 299 298 292 175 266 337 326 281 278 270 260 252 242 254 260 246 243 235 230 234 232 235 238 238 241 239 243 233 210 203 200 200 203 205 206 206 205 206 208 209 211 213 214 214 214 214 215 217 218 217 216 217 220 220 220 221 221 221 223 224 225 225 226 226 226 226 226 224 224 226 225 223 222 219 213 209 204 199 193 188 187 186 186 184 181 174 168 169 174 176
331 129 138 198 246 150 188 277 313 330 345 348 359 330 286 290 306 279 274 265 261 264 261 260 250 237 239 247 248 239 236 233 227 234 223 187 189 194 199 203 203 203 205 206 207 209 211 213 215 216 215 215 215 216 216 215 215 213 213 215 217 219 221 221 221 224 225 226 228 228 228 228 225 223 221 219 220 218 216 217 216 212 208 203 200 197 194 193 192 190 187 184 181 177 175 177 180
320 260 177 188 164 131 126 23 24 17 341 321 30 352 290 304 313 278 298 322 286 280 275 260 258 252 241 247 250 244 245 238 225 227 210 188 192 195 199 202 202 203 206 209 209 211 213 214 216 217 216 216 216 216 216 215 214 213 212 210 209 210 213 217 220 223 225 226 229 229 230 230 225 222 222 218 214 212 209 209 209 208 204 200 199 197 196 194 193 192 191 189 188 185 179 176 181
317 254 203 170 124 108 98 63 51 45 270 277 76 112 271 299 293 264 275 283 275 286 287 264 261 260 242 237 245 245 247 239 232 229 203 192 194 194 199 202 202 205 208 210 212 214 215 216 216 217 217 217 216 216 216 216 216 215 214 213 213 212 213 218 222 224 226 225 226 227 229 228 222 219 220 217 213 212 209 208 208 206 204 202 200 197 197 197 196 196 194 192 190 188 182 178 182
227 235 172 126 107 111 112 93 93 215 255 315 5 133 246 286 274 257 255 264 276 284 275 265 257 258 257 251 247 242 238 230 223 219 200 196 199 198 202 203 204 208 209 210 212 214 215 216 217 217 218 217 215 215 216 216 217 216 216 216 218 220 222 226 226 225 226 225 224 224 225 223 219 219 219 216 215 215 212 212 211 211 211 208 205 202 202 202 200 195 192 192 189 188 188 186 184
239 217 140 115 115 125 111 96 92 1 8 315 305 139 240 268 270 280 267 262 277 266 258 261 263 267 267 247 239 237 235 229 217 209 200 200 204 204 205 206 207 210 211 212 214 215 216 216 217 217 217 216 215 215 216 217 219 219 218 217 219 222 225 227 225 224 224 224 224 224 223 221 220 219 218 218 221 221 218 218 218 218 217 214 210 208 207 204 200 195 192 192 191 191 193 191 188
220 154 91 62 71 77 76 97 100 33 0 259 229 175 233 268 261 270 324 258 265 259 258 262 271 276 255 213 200 187 182 188 203 201 182 191 205 207 206 205 208 210 213 215 215 215 214 213 214 214 215 215 214 214 216 217 218 220 220 219 220 221 220 221 222 223 223 222 222 224 223 222 220 219 218 218 221 221 219 221 223 222 219 217 213 210 208 205 202 199 198 197 196 196 196 194 194
125 85 61 39 25 32 42 63 80 51 292 253 212 187 192 277 271 235 202 223 232 239 290 292 302 320 213 191 178 177 181 177 177 175 132 139 181 195 196 199 204 207 210 211 212 212 211 210 210 212 213 214 214 214 215 217 219 220 222 223 223 221 219 219 219 221 222 221 221 223 224 224 224 223 220 218 218 219 220 222 222 221 218 216 214 210 208 206 204 204 202 199 198 200 199 198 200
94 81 79 56 349 10 17 359 50 132 257 265 237 194 170 247 264 244 250 262 229 181 227 279 262 186 202 209 206 200 200 193 187 190 171 131 139 171 184 191 197 200 203 205 207 208 207 207 207 208 210 212 213 214 215 217 219 221 223 224 224 224 223 222 222 223 222 221 222 222 223 223 224 225 223 221 219 219 222 222 219 217 216 214 213 211 209 209 207 205 203 200 201 203 202 200 201
78 100 102 94 320 3 352 303 147 220 246 266 266 170 188 244 253 258 274 282 257 207 208 209 196 209 228 232 233 230 215 198 195 203 202 182 166 177 183 188 192 195 199 202 203 203 203 204 205 206 208 209 212 214 215 218 220 221 223 224 224 225 226 227 226 225 224 223 223 222 221 220 220 221 221 222 222 221 221 219 216 214 213 215 214 212 210 209 207 205 203 202 203 204 204 204 203
135 140 133 140 151 154 245 256 269 263 261 277 318 154 247 282 278 244 249 261 258 247 244 219 192 199 219 223 225 236 228 205 205 213 210 207 206 204 198 195 195 197 200 201 201 202 201 202 203 205 208 210 212 215 217 219 221 223 224 225 226 226 227 227 226 225 224 225 226 228 227 225 223 222 222 222 225 226 222 218 217 216 215 216 216 212 209 208 207 207 205 205 204 205 205 206 205
181 155 136 159 166 167 203 207 210 249 276 289 295 220 205 224 269 240 234 259 275 280 268 245 228 225 229 228 210 222 234 219 210 215 219 222 219 217 213 207 204 202 202 202 202 202 201 202 203 206 209 211 214 216 218 221 223 224 226 226 227 226 227 227 225 225 227 226 227 230 232 232 230 230 228 227 229 228 223 218 218 219 217 216 216 213 210 209 209 207 207 206 205 205 205 205 206
225 138 117 188 192 158 168 197 182 183 302 286 244 235 211 204 264 262 252 269 280 291 302 292 263 256 287 283 231 223 231 222 213 212 220 231 226 222 220 214 211 208 205 205 204 203 204 205 206 209 213 215 216 218 220 223 225 226 227 228 227 226 224 223 223 225 227 228 228 229 233 235 235 236 234 232 232 230 226 221 221 221 219 217 216 214 211 210 210 208 206 206 204 204 205 206 207
193 151 174 207 176 133 135 254 206 98 252 265 204 250 281 315 283 265 249 257 272 294 306 298 277 272 262 241 236 236 231 217 216 212 209 221 223 222 221 217 214 211 208 208 207 208 209 210 211 212 215 217 219 222 223 225 226 228 229 230 230 228 224 221 219 220 223 225 227 229 233 235 235 237 237 235 235 233 231 229 227 224 220 216 216 214 213 212 212 210 208 206 205 204 205 206 207
138 184 209 171 89 95 114 217 338 41 248 272 210 238 272 310 271 293 6 308 295 288 274 270 276 280 269 259 255 258 254 227 215 213 214 223 223 222 220 218 218 216 214 213 212 214 215 215 216 216 216 219 221 224 225 227 228 229 230 232 232 231 228 224 219 218 220 222 223 227 230 232 233 236 238 239 240 239 237 234 231 227 220 215 214 214 214 213 213 212 209 207 206 204 203 205 206
142 187 199 127 119 243 122 164 209 202 240 276 268 249 253 226 231 272 342 308 297 281 260 251 260 260 261 268 269 274 288 288 228 216 220 227 226 223 219 218 220 219 218 218 218 218 218 219 220 221 222 223 224 226 227 228 230 231 233 234 236 233 230 228 223 220 220 220 221 225 227 228 231 237 241 242 242 241 238 234 230 226 220 214 213 213 212 211 212 211 207 206 206 205 204 203 203
37 108 163 131 145 177 174 174 173 168 200 249 276 283 251 231 201 160 223 255 260 259 254 242 246 247 247 256 263 277 287 267 240 229 227 228 225 224 220 219 220 219 219 219 219 220 221 221 221 223 225 226 227 228 228 229 231 232 235 236 237 236 231 229 227 224 222 222 222 224 226 227 231 238 241 241 240 238 236 234 230 224 218 214 212 211 210 209 209 208 205 203 203 203 202 200 198
172 166 187 198 107 122 189 208 143 148 172 213 263 276 261 241 180 175 211 234 240 241 238 236 243 246 248 250 249 258 258 241 239 243 241 236 229 226 223 222 222 220 219 218 219 222 223 223 222 224 226 227 227 228 228 230 232 233 235 236 238 238 234 230 228 227 226 225 224 224 225 227 233 237 237 234 233 233 235 236 232 225 219 216 214 212 211 210 208 206 205 203 201 200 200 199 197
179 182 192 191 171 137 167 249 244 140 178 187 177 266 275 247 167 190 202 215 236 226 215 235 248 246 246 245 239 242 245 237 240 250 253 241 229 224 222 222 219 216 216 216 219 223 224 224 224 225 227 228 229 229 229 232 234 235 236 238 240 240 237 233 231 229 228 228 226 224 223 226 231 233 230 229 231 232 234 234 231 227 222 218 216 214 212 211 208 206 202 200 199 198 198 198 196